| time (UTC) | temp C | wind direction | speed KPH | gust KPH | rain 1hr cm | rain 24hr cm | rain mn cm | humidity % | barometer mb |
| 20260510095002 | 11 | 299 | 1.6 | 3.2 | 0.00 | 0.36 | 0.00 | 93 | 1011.9 |
| 20260510094502 | 11 | 310 | 1.6 | 3.2 | 0.00 | 0.36 | 0.00 | 93 | 1011.8 |
| 20260510094002 | 11 | 307 | 0.0 | 3.2 | 0.00 | 0.36 | 0.00 | 92 | 1011.8 |
| 20260510093502 | 11 | 292 | 0.0 | 3.2 | 0.00 | 0.36 | 0.00 | 92 | 1011.7 |
| 20260510093002 | 11 | 47 | 0.0 | 1.6 | 0.00 | 0.36 | 0.00 | 92 | 1011.7 |
| 20260510092502 | 11 | 37 | 0.0 | 1.6 | 0.00 | 0.36 | 0.00 | 92 | 1011.7 |
| 20260510092024 | 11 | 21 | 0.0 | 1.6 | 0.00 | 0.36 | 0.00 | 92 | 1011.8 |
| 20260510091502 | 11 | 17 | 0.0 | 3.2 | 0.00 | 0.36 | 0.00 | 92 | 1011.8 |
| 20260510091024 | 11 | 21 | 0.0 | 3.2 | 0.00 | 0.36 | 0.00 | 92 | 1011.8 |
| 20260510090524 | 11 | 110 | 0.0 | 1.6 | 0.00 | 0.36 | 0.00 | 92 | 1011.7 |
| 20260510090003 | 11 | 117 | 0.0 | 1.6 | 0.00 | 0.36 | 0.00 | 92 | 1011.5 |
| 20260510085503 | 11 | 114 | 0.0 | 1.6 | 0.00 | 0.36 | 0.00 | 92 | 1011.5 |
| 20260510085003 | 11 | 107 | 0.0 | 1.6 | 0.00 | 0.36 | 0.00 | 92 | 1011.5 |
| 20260510084503 | 11 | 106 | 0.0 | 3.2 | 0.00 | 0.36 | 0.00 | 92 | 1011.6 |
| 20260510084003 | 11 | 120 | 0.0 | 3.2 | 0.00 | 0.36 | 0.00 | 92 | 1011.6 |
| 20260510083503 | 11 | 142 | 1.6 | 4.8 | 0.00 | 0.36 | 0.00 | 92 | 1011.6 |
| 20260510083003 | 11 | 149 | 1.6 | 4.8 | 0.00 | 0.36 | 0.00 | 92 | 1011.6 |
| 20260510082503 | 11 | 147 | 3.2 | 4.8 | 0.00 | 0.36 | 0.00 | 92 | 1011.5 |
| 20260510082003 | 11 | 144 | 1.6 | 4.8 | 0.00 | 0.36 | 0.00 | 92 | 1011.5 |
| 20260510081503 | 11 | 137 | 1.6 | 3.2 | 0.00 | 0.36 | 0.00 | 92 | 1011.7 |
| 20260510081003 | 11 | 123 | 1.6 | 3.2 | 0.00 | 0.36 | 0.00 | 92 | 1011.8 |
| 20260510080503 | 10 | 134 | 1.6 | 4.8 | 0.00 | 0.36 | 0.00 | 92 | 1011.8 |
| 20260510080024 | 10 | 143 | 1.6 | 4.8 | 0.00 | 0.36 | 0.00 | 92 | 1011.9 |
| 20260510075525 | 10 | 134 | 1.6 | 3.2 | 0.00 | 0.36 | 0.00 | 92 | 1011.8 |
| 20260510075003 | 10 | 117 | 1.6 | 3.2 | 0.00 | 0.36 | 0.00 | 92 | 1011.8 |
| 20260510074503 | 10 | 126 | 1.6 | 3.2 | 0.00 | 0.36 | 0.00 | 92 | 1011.9 |
| 20260510074003 | 10 | 146 | 1.6 | 3.2 | 0.00 | 0.36 | 0.00 | 92 | 1012.0 |
| 20260510073521 | 10 | 163 | 1.6 | 3.2 | 0.00 | 0.36 | 0.00 | 92 | 1012.2 |
| 20260510073000 | 10 | 168 | 0.0 | 3.2 | 0.00 | 0.36 | 0.00 | 92 | 1012.2 |
| 20260510072459 | 10 | 139 | 1.6 | 3.2 | 0.00 | 0.36 | 0.00 | 92 | 1012.3 |
| 20260510071959 | 10 | 149 | 1.6 | 3.2 | 0.00 | 0.36 | 0.00 | 92 | 1012.2 |
| 20260510071521 | 10 | 287 | 1.6 | 4.8 | 0.00 | 0.36 | 0.00 | 92 | 1012.1 |
| 20260510071021 | 10 | 289 | 1.6 | 4.8 | 0.00 | 0.36 | 0.00 | 92 | 1012.1 |
| 20260510070500 | 10 | 326 | 1.6 | 4.8 | 0.00 | 0.36 | 0.00 | 92 | 1012.1 |
| 20260510070021 | 10 | 324 | 1.6 | 4.8 | 0.00 | 0.36 | 0.00 | 92 | 1012.4 |
| 20260510065500 | 10 | 130 | 0.0 | 1.6 | 0.00 | 0.36 | 0.00 | 92 | 1011.7 |
| 20260510065000 | 10 | 129 | 0.0 | 1.6 | 0.00 | 0.36 | 0.00 | 95 | 1011.5 |
| 20260510064500 | 10 | 125 | 0.0 | 3.2 | 0.00 | 0.36 | 0.00 | 91 | 1011.5 |
| 20260510064000 | 10 | 126 | 1.6 | 3.2 | 0.00 | 0.36 | 0.00 | 91 | 1011.4 |
| 20260510063521 | 10 | 127 | 1.6 | 3.2 | 0.00 | 0.36 | 0.00 | 91 | 1011.4 |
| 20260510063021 | 10 | 129 | 1.6 | 1.6 | 0.00 | 0.36 | 0.00 | 91 | 1011.5 |
| 20260510062521 | 9 | 122 | 0.0 | 1.6 | 0.00 | 0.36 | 0.00 | 91 | 1011.6 |
| 20260510062000 | 9 | 134 | 1.6 | 3.2 | 0.00 | 0.36 | 0.00 | 91 | 1011.6 |
| 20260510061521 | 9 | 145 | 0.0 | 3.2 | 0.00 | 0.36 | 0.00 | 91 | 1011.6 |
| 20260510061000 | 8 | 136 | 0.0 | 1.6 | 0.00 | 0.36 | 0.00 | 91 | 1011.7 |
| 20260510060500 | 8 | 111 | 0.0 | 1.6 | 0.00 | 0.36 | 0.00 | 91 | 1011.7 |
| 20260510060000 | 8 | 136 | 1.6 | 3.2 | 0.00 | 0.36 | 0.00 | 91 | 1011.7 |
| 20260510055500 | 8 | 142 | 1.6 | 3.2 | 0.00 | 0.36 | 0.00 | 90 | 1011.7 |
| 20260510055022 | 8 | 140 | 1.6 | 3.2 | 0.00 | 0.36 | 0.00 | 91 | 1011.9 |
| 20260510054500 | 8 | 293 | 0.0 | 1.6 | 0.00 | 0.36 | 0.00 | 90 | 1012.0 |
| 20260510054000 | 8 | 301 | 0.0 | 1.6 | 0.00 | 0.36 | 0.00 | 90 | 1012.0 |
| 20260510053500 | 8 | 333 | 0.0 | 1.6 | 0.00 | 0.36 | 0.00 | 90 | 1011.7 |
| 20260510053000 | 8 | 253 | 0.0 | 1.6 | 0.00 | 0.36 | 0.00 | 89 | 1011.5 |
| 20260510052500 | 8 | 274 | 0.0 | 1.6 | 0.00 | 0.36 | 0.00 | 90 | 1011.5 |
| 20260510052022 | 8 | 304 | 0.0 | 1.6 | 0.00 | 0.36 | 0.00 | 90 | 1011.5 |
| 20260510051522 | 8 | 292 | 0.0 | 1.6 | 0.00 | 0.36 | 0.00 | 90 | 1011.4 |
| 20260510051000 | 8 | 162 | 0.0 | 1.6 | 0.00 | 0.36 | 0.00 | 90 | 1011.4 |
| 20260510050500 | 8 | 117 | 0.0 | 1.6 | 0.00 | 0.36 | 0.00 | 90 | 1011.4 |
| 20260510050001 | 8 | 70 | 0.0 | 1.6 | 0.00 | 0.36 | 0.00 | 89 | 1011.4 |
| 20260510045500 | 8 | 67 | 0.0 | 1.6 | 0.00 | 0.36 | 0.00 | 89 | 1011.4 |
| 20260510045022 | 8 | 84 | 0.0 | 1.6 | 0.00 | 0.36 | 0.00 | 89 | 1011.4 |
| 20260510044501 | 8 | 94 | 0.0 | 1.6 | 0.00 | 0.36 | 0.00 | 89 | 1011.4 |
| 20260510044001 | 8 | 106 | 0.0 | 1.6 | 0.00 | 0.36 | 0.00 | 89 | 1011.5 |
| 20260510043501 | 8 | 98 | 0.0 | 1.6 | 0.00 | 0.36 | 0.00 | 89 | 1011.5 |
| 20260510043001 | 8 | 128 | 0.0 | 1.6 | 0.00 | 0.36 | 0.00 | 89 | 1011.5 |
| 20260510042522 | 8 | 111 | 1.6 | 1.6 | 0.00 | 0.36 | 0.00 | 89 | 1011.5 |
| 20260510042001 | 8 | 90 | 0.0 | 1.6 | 0.00 | 0.36 | 0.00 | 89 | 1011.5 |
| 20260510041522 | 8 | 90 | 0.0 | 1.6 | 0.00 | 0.36 | 0.00 | 89 | 1011.6 |
| 20260510041001 | 8 | 175 | 0.0 | 1.6 | 0.00 | 0.36 | 0.00 | 89 | 1011.7 |
| 20260510040522 | 9 | 193 | 0.0 | 1.6 | 0.00 | 0.36 | 0.00 | 89 | 1011.6 |
| 20260510040003 | 9 | 125 | 0.0 | 3.2 | 0.00 | 0.36 | 0.00 | 89 | 1011.4 |
| 20260510035501 | 9 | 96 | 1.6 | 3.2 | 0.00 | 0.36 | 0.36 | 89 | 1011.4 |
| 20260510035001 | 9 | 90 | 1.6 | 3.2 | 0.00 | 0.36 | 0.36 | 89 | 1011.5 |
| 20260510034501 | 9 | 116 | 0.0 | 3.2 | 0.00 | 0.36 | 0.36 | 88 | 1011.5 |
| 20260510034001 | 9 | 122 | 0.0 | 1.6 | 0.00 | 0.36 | 0.36 | 89 | 1011.5 |
| 20260510033501 | 9 | 63 | 0.0 | 3.2 | 0.00 | 0.36 | 0.36 | 88 | 1011.4 |
| 20260510033001 | 9 | 41 | 0.0 | 3.2 | 0.00 | 0.36 | 0.36 | 88 | 1011.4 |
| 20260510032501 | 9 | 113 | 0.0 | 3.2 | 0.00 | 0.36 | 0.36 | 88 | 1011.4 |
| 20260510032001 | 10 | 142 | 0.0 | 1.6 | 0.00 | 0.36 | 0.36 | 88 | 1011.3 |
| 20260510031501 | 10 | 137 | 0.0 | 1.6 | 0.00 | 0.36 | 0.36 | 88 | 1011.3 |
| 20260510031001 | 10 | 112 | 0.0 | 1.6 | 0.00 | 0.36 | 0.36 | 88 | 1011.2 |
| 20260510030501 | 10 | 147 | 0.0 | 1.6 | 0.00 | 0.36 | 0.36 | 88 | 1011.3 |
| 20260510030001 | 10 | 58 | 0.0 | 1.6 | 0.00 | 0.36 | 0.36 | 87 | 1011.4 |
| 20260510025501 | 10 | 61 | 0.0 | 1.6 | 0.00 | 0.36 | 0.36 | 88 | 1011.3 |
| 20260510025023 | 10 | 89 | 0.0 | 1.6 | 0.00 | 0.36 | 0.36 | 88 | 1011.4 |
| 20260510024523 | 10 | 103 | 0.0 | 1.6 | 0.00 | 0.36 | 0.36 | 88 | 1011.3 |
| 20260510024001 | 10 | 121 | 0.0 | 1.6 | 0.00 | 0.36 | 0.36 | 87 | 1011.3 |
| 20260510023501 | 10 | 105 | 0.0 | 1.6 | 0.00 | 0.36 | 0.36 | 88 | 1011.3 |
| 20260510023002 | 10 | 51 | 0.0 | 1.6 | 0.00 | 0.36 | 0.36 | 88 | 1011.2 |
| 20260510022502 | 10 | 73 | 0.0 | 1.6 | 0.00 | 0.36 | 0.36 | 87 | 1011.2 |
| 20260510022001 | 10 | 64 | 0.0 | 1.6 | 0.00 | 0.36 | 0.36 | 87 | 1011.2 |
| 20260510021502 | 10 | 87 | 0.0 | 1.6 | 0.00 | 0.36 | 0.36 | 87 | 1011.3 |
| 20260510021002 | 11 | 181 | 0.0 | 1.6 | 0.00 | 0.36 | 0.36 | 87 | 1011.2 |
| 20260510020502 | 11 | 190 | 0.0 | 3.2 | 0.00 | 0.36 | 0.36 | 87 | 1011.1 |
| 20260510020002 | 11 | 184 | 0.0 | 3.2 | 0.00 | 0.36 | 0.36 | 87 | 1011.2 |
| 20260510015502 | 11 | 87 | 0.0 | 1.6 | 0.00 | 0.36 | 0.36 | 86 | 1011.0 |
| 20260510015002 | 11 | 87 | 0.0 | 1.6 | 0.00 | 0.36 | 0.36 | 86 | 1011.0 |
| 20260510014502 | 11 | 87 | 0.0 | 1.6 | 0.00 | 0.36 | 0.36 | 86 | 1011.0 |
| 20260510014002 | 11 | 90 | 0.0 | 1.6 | 0.00 | 0.36 | 0.36 | 86 | 1011.0 |
| 20260510013523 | 11 | 123 | 0.0 | 1.6 | 0.00 | 0.36 | 0.36 | 85 | 1011.1 |
| 20260510013002 | 11 | 110 | 0.0 | 1.6 | 0.00 | 0.36 | 0.36 | 85 | 1011.0 |
| 20260510012502 | 11 | 97 | 0.0 | 1.6 | 0.00 | 0.36 | 0.36 | 85 | 1011.0 |
| 20260510012002 | 12 | 94 | 0.0 | 1.6 | 0.00 | 0.36 | 0.36 | 85 | 1010.9 |
| 20260510011502 | 12 | 113 | 0.0 | 1.6 | 0.00 | 0.36 | 0.36 | 84 | 1010.9 |
| 20260510011002 | 12 | 150 | 0.0 | 1.6 | 0.00 | 0.36 | 0.36 | 84 | 1010.9 |
| 20260510010502 | 12 | 125 | 1.6 | 3.2 | 0.00 | 0.36 | 0.36 | 84 | 1010.7 |
| 20260510010023 | 12 | 113 | 0.0 | 3.2 | 0.00 | 0.36 | 0.36 | 84 | 1010.7 |
| 20260510005523 | 12 | 121 | 0.0 | 3.2 | 0.00 | 0.36 | 0.36 | 84 | 1010.6 |
| 20260510005002 | 12 | 134 | 0.0 | 1.6 | 0.00 | 0.36 | 0.36 | 83 | 1010.6 |
| 20260510004502 | 13 | 127 | 0.0 | 1.6 | 0.00 | 0.36 | 0.36 | 83 | 1010.5 |
| 20260510004002 | 13 | 96 | 0.0 | 1.6 | 0.00 | 0.36 | 0.36 | 83 | 1010.4 |
| 20260510003502 | 13 | 76 | 0.0 | 1.6 | 0.00 | 0.36 | 0.36 | 83 | 1010.3 |
| 20260510003024 | 13 | 73 | 0.0 | 1.6 | 0.00 | 0.36 | 0.36 | 83 | 1010.3 |
| 20260510002502 | 13 | 114 | 0.0 | 1.6 | 0.00 | 0.36 | 0.36 | 82 | 1010.1 |
| 20260510002002 | 13 | 119 | 0.0 | 1.6 | 0.00 | 0.36 | 0.36 | 82 | 1010.2 |
| 20260510001502 | 14 | 131 | 0.0 | 1.6 | 0.00 | 0.36 | 0.36 | 82 | 1010.1 |
| 20260510001002 | 14 | 134 | 0.0 | 1.6 | 0.00 | 0.36 | 0.36 | 81 | 1010.0 |
| 20260510000502 | 15 | 125 | 0.0 | 1.6 | 0.00 | 0.36 | 0.36 | 80 | 1009.9 |
| 20260510000024 | 15 | 120 | 0.0 | 3.2 | 0.00 | 0.36 | 0.36 | 80 | 1009.9 |
| 20260509235502 | 15 | 127 | 1.6 | 3.2 | 0.00 | 0.36 | 0.36 | 80 | 1009.9 |
| 20260509235003 | 15 | 141 | 1.6 | 1.6 | 0.00 | 0.36 | 0.36 | 80 | 1009.9 |
| 20260509234503 | 15 | 143 | 1.6 | 3.2 | 0.00 | 0.36 | 0.36 | 80 | 1010.0 |
| 20260509234003 | 15 | 151 | 1.6 | 3.2 | 0.00 | 0.36 | 0.36 | 79 | 1009.9 |
| 20260509233503 | 15 | 184 | 1.6 | 4.8 | 0.00 | 0.36 | 0.36 | 79 | 1009.9 |
| 20260509233003 | 15 | 185 | 1.6 | 4.8 | 0.00 | 0.36 | 0.36 | 78 | 1009.9 |
| 20260509232503 | 15 | 186 | 1.6 | 4.8 | 0.00 | 0.36 | 0.36 | 78 | 1009.9 |
| 20260509232003 | 15 | 198 | 3.2 | 9.7 | 0.00 | 0.36 | 0.36 | 78 | 1009.8 |
| 20260509231503 | 15 | 197 | 3.2 | 9.7 | 0.00 | 0.36 | 0.36 | 78 | 1009.8 |
| 20260509231003 | 15 | 196 | 3.2 | 6.4 | 0.00 | 0.36 | 0.36 | 78 | 1009.8 |
| 20260509230504 | 15 | 197 | 1.6 | 3.2 | 0.00 | 0.36 | 0.36 | 79 | 1009.8 |
| 20260509230003 | 15 | 187 | 1.6 | 3.2 | 0.00 | 0.36 | 0.36 | 80 | 1009.9 |
| 20260509225503 | 15 | 193 | 1.6 | 4.8 | 0.00 | 0.36 | 0.36 | 80 | 1009.8 |
| 20260509225003 | 15 | 214 | 1.6 | 4.8 | 0.00 | 0.36 | 0.36 | 80 | 1009.7 |
| 20260509224503 | 15 | 184 | 1.6 | 4.8 | 0.00 | 0.36 | 0.36 | 80 | 1009.8 |
| 20260509224004 | 15 | 184 | 1.6 | 3.2 | 0.00 | 0.36 | 0.36 | 81 | 1009.8 |
| 20260509223503 | 15 | 305 | 1.6 | 6.4 | 0.00 | 0.36 | 0.36 | 82 | 1009.8 |
| 20260509223003 | 15 | 299 | 1.6 | 6.4 | 0.00 | 0.36 | 0.36 | 81 | 1009.8 |
| 20260509222500 | 15 | 216 | 1.6 | 6.4 | 0.00 | 0.36 | 0.36 | 81 | 1009.8 |
| 20260509222000 | 15 | 232 | 1.6 | 6.4 | 0.00 | 0.36 | 0.36 | 82 | 1010.0 |
| 20260509221500 | 15 | 289 | 1.6 | 4.8 | 0.00 | 0.36 | 0.36 | 83 | 1010.0 |
| 20260509221000 | 15 | 308 | 1.6 | 4.8 | 0.00 | 0.36 | 0.36 | 83 | 1010.0 |
| 20260509220500 | 15 | 316 | 1.6 | 4.8 | 0.00 | 0.36 | 0.36 | 83 | 1010.1 |
| 20260509220000 | 15 | 320 | 1.6 | 4.8 | 0.00 | 0.36 | 0.36 | 84 | 1010.1 |
| 20260509215500 | 15 | 317 | 1.6 | 4.8 | 0.00 | 0.36 | 0.36 | 84 | 1010.1 |
| 20260509215000 | 15 | 268 | 1.6 | 4.8 | 0.00 | 0.36 | 0.36 | 83 | 1010.1 |
| 20260509214500 | 15 | 193 | 1.6 | 6.4 | 0.00 | 0.36 | 0.36 | 83 | 1010.1 |
| 20260509214000 | 14 | 194 | 3.2 | 8.0 | 0.00 | 0.36 | 0.36 | 83 | 1010.1 |
| 20260509213500 | 14 | 194 | 1.6 | 8.0 | 0.00 | 0.36 | 0.36 | 83 | 1010.1 |
| 20260509213000 | 14 | 195 | 1.6 | 4.8 | 0.00 | 0.36 | 0.36 | 84 | 1010.1 |
| 20260509212500 | 14 | 208 | 3.2 | 6.4 | 0.00 | 0.36 | 0.36 | 83 | 1010.1 |
| 20260509212000 | 14 | 218 | 3.2 | 6.4 | 0.00 | 0.36 | 0.36 | 84 | 1010.1 |
| 20260509211500 | 14 | 205 | 3.2 | 8.0 | 0.00 | 0.36 | 0.36 | 84 | 1010.3 |
| 20260509211000 | 14 | 206 | 3.2 | 8.0 | 0.00 | 0.36 | 0.36 | 85 | 1010.3 |
| 20260509210500 | 14 | 204 | 3.2 | 6.4 | 0.00 | 0.36 | 0.36 | 85 | 1010.4 |
| 20260509210000 | 14 | 190 | 1.6 | 6.4 | 0.00 | 0.36 | 0.36 | 85 | 1010.5 |
| 20260509205500 | 14 | 188 | 1.6 | 6.4 | 0.00 | 0.36 | 0.36 | 85 | 1010.6 |
| 20260509205000 | 14 | 197 | 1.6 | 6.4 | 0.00 | 0.36 | 0.36 | 85 | 1010.5 |
| 20260509204500 | 14 | 263 | 1.6 | 3.2 | 0.00 | 0.36 | 0.36 | 86 | 1010.5 |
| 20260509204000 | 14 | 295 | 1.6 | 4.8 | 0.00 | 0.36 | 0.36 | 87 | 1010.5 |
| 20260509203522 | 14 | 298 | 1.6 | 4.8 | 0.00 | 0.36 | 0.36 | 87 | 1010.7 |
| 20260509203000 | 14 | 276 | 1.6 | 6.4 | 0.00 | 0.36 | 0.36 | 87 | 1010.8 |
| 20260509202500 | 14 | 258 | 1.6 | 6.4 | 0.00 | 0.36 | 0.36 | 87 | 1010.7 |
| 20260509202000 | 14 | 278 | 1.6 | 4.8 | 0.00 | 0.36 | 0.36 | 87 | 1010.7 |
| 20260509201500 | 13 | 289 | 1.6 | 4.8 | 0.03 | 0.36 | 0.36 | 87 | 1010.8 |
| 20260509201022 | 13 | 285 | 1.6 | 4.8 | 0.03 | 0.36 | 0.36 | 87 | 1010.8 |
| 20260509200522 | 13 | 267 | 1.6 | 3.2 | 0.03 | 0.36 | 0.36 | 87 | 1010.7 |
| 20260509200001 | 13 | 231 | 1.6 | 3.2 | 0.03 | 0.36 | 0.36 | 87 | 1010.6 |
| 20260509195500 | 13 | 224 | 0.0 | 3.2 | 0.03 | 0.36 | 0.36 | 88 | 1010.7 |
| 20260509195001 | 13 | 143 | 0.0 | 3.2 | 0.05 | 0.36 | 0.36 | 88 | 1010.7 |
| 20260509194501 | 13 | 203 | 1.6 | 4.8 | 0.05 | 0.36 | 0.36 | 88 | 1010.8 |
| 20260509194001 | 13 | 207 | 1.6 | 4.8 | 0.08 | 0.36 | 0.36 | 88 | 1010.8 |
| 20260509193501 | 13 | 194 | 1.6 | 4.8 | 0.08 | 0.36 | 0.36 | 88 | 1010.8 |
| 20260509193001 | 13 | 162 | 1.6 | 4.8 | 0.08 | 0.36 | 0.36 | 88 | 1011.0 |
| 20260509192501 | 13 | 144 | 1.6 | 4.8 | 0.10 | 0.36 | 0.36 | 88 | 1011.0 |
| 20260509192001 | 13 | 135 | 1.6 | 3.2 | 0.10 | 0.36 | 0.36 | 88 | 1011.1 |
| 20260509191501 | 13 | 127 | 1.6 | 3.2 | 0.08 | 0.33 | 0.33 | 88 | 1011.2 |
| 20260509191001 | 13 | 132 | 1.6 | 3.2 | 0.10 | 0.33 | 0.33 | 88 | 1011.2 |
| 20260509190522 | 13 | 140 | 1.6 | 3.2 | 0.10 | 0.33 | 0.33 | 88 | 1011.5 |
| 20260509190001 | 13 | 134 | 0.0 | 3.2 | 0.10 | 0.33 | 0.33 | 88 | 1011.7 |
| 20260509185501 | 13 | 166 | 0.0 | 3.2 | 0.10 | 0.33 | 0.33 | 88 | 1011.7 |
| 20260509185001 | 13 | 143 | 1.6 | 3.2 | 0.08 | 0.30 | 0.30 | 88 | 1011.9 |
| 20260509184501 | 13 | 126 | 1.6 | 3.2 | 0.08 | 0.30 | 0.30 | 88 | 1011.8 |
| 20260509184001 | 13 | 156 | 1.6 | 4.8 | 0.08 | 0.28 | 0.28 | 88 | 1011.8 |
| 20260509183501 | 13 | 177 | 1.6 | 4.8 | 0.08 | 0.28 | 0.28 | 88 | 1012.1 |
| 20260509183001 | 13 | 177 | 1.6 | 4.8 | 0.08 | 0.28 | 0.28 | 88 | 1012.0 |
| 20260509182501 | 13 | 181 | 1.6 | 4.8 | 0.05 | 0.25 | 0.25 | 87 | 1011.9 |
| 20260509182001 | 13 | 181 | 1.6 | 4.8 | 0.08 | 0.25 | 0.25 | 87 | 1011.9 |
| 20260509181522 | 13 | 184 | 3.2 | 6.4 | 0.10 | 0.25 | 0.25 | 87 | 1012.0 |
| 20260509181001 | 13 | 190 | 1.6 | 6.4 | 0.10 | 0.23 | 0.23 | 86 | 1012.0 |
| 20260509180501 | 13 | 180 | 1.6 | 4.8 | 0.13 | 0.23 | 0.23 | 86 | 1012.0 |
| 20260509180001 | 13 | 184 | 1.6 | 3.2 | 0.15 | 0.23 | 0.23 | 86 | 1012.0 |
| 20260509175501 | 13 | 235 | 1.6 | 3.2 | 0.18 | 0.23 | 0.23 | 89 | 1012.0 |
| 20260509175023 | 13 | 216 | 1.6 | 3.2 | 0.20 | 0.23 | 0.23 | 86 | 1011.9 |
| 20260509174501 | 13 | 160 | 0.0 | 3.2 | 0.20 | 0.23 | 0.23 | 86 | 1011.8 |
| 20260509174023 | 13 | 161 | 0.0 | 3.2 | 0.18 | 0.20 | 0.20 | 86 | 1011.8 |
| 20260509173501 | 13 | 282 | 1.6 | 6.4 | 0.18 | 0.20 | 0.20 | 86 | 1011.8 |
| 20260509173001 | 13 | 292 | 1.6 | 6.4 | 0.18 | 0.20 | 0.20 | 85 | 1011.8 |
| 20260509172501 | 13 | 287 | 1.6 | 4.8 | 0.18 | 0.20 | 0.20 | 85 | 1011.7 |
| 20260509172023 | 13 | 356 | 1.6 | 4.8 | 0.18 | 0.18 | 0.18 | 84 | 1011.7 |
| 20260509171523 | 13 | 350 | 1.6 | 4.8 | 0.15 | 0.15 | 0.18 | 84 | 1011.6 |
| 20260509171002 | 13 | 285 | 1.6 | 6.4 | 0.13 | 0.13 | 0.13 | 83 | 1011.5 |
| 20260509170501 | 14 | 299 | 1.6 | 6.4 | 0.10 | 0.10 | 0.10 | 83 | 1011.8 |
| 20260509170002 | 14 | 313 | 3.2 | 8.0 | 0.08 | 0.08 | 0.08 | 83 | 1012.0 |
| 20260509165523 | 15 | 299 | 3.2 | 8.0 | 0.05 | 0.05 | 0.05 | 84 | 1012.0 |
| 20260509165023 | 15 | 284 | 1.6 | 8.0 | 0.03 | 0.03 | 0.05 | 84 | 1012.1 |
| 20260509164502 | 15 | 229 | 1.6 | 4.8 | 0.03 | 0.03 | 0.03 | 84 | 1012.1 |
| 20260509164002 | 15 | 200 | 3.2 | 6.4 | 0.03 | 0.03 | 0.03 | 82 | 1012.1 |
| 20260509163502 | 15 | 191 | 1.6 | 6.4 | 0.03 | 0.03 | 0.03 | 83 | 1012.1 |
| 20260509163002 | 15 | 200 | 3.2 | 9.7 | 0.03 | 0.03 | 0.03 | 82 | 1012.1 |
| 20260509162523 | 15 | 210 | 3.2 | 9.7 | 0.03 | 0.03 | 0.03 | 80 | 1012.1 |
| 20260509162002 | 15 | 210 | 3.2 | 9.7 | 0.00 | 0.00 | 0.00 | 79 | 1012.2 |
| 20260509161502 | 15 | 201 | 3.2 | 9.7 | 0.00 | 0.00 | 0.00 | 79 | 1012.1 |
| 20260509161024 | 15 | 217 | 3.2 | 14.5 | 0.00 | 0.00 | 0.00 | 79 | 1012.1 |
| 20260509160523 | 15 | 204 | 3.2 | 14.5 | 0.00 | 0.00 | 0.00 | 78 | 1012.1 |
| 20260509160003 | 16 | 194 | 1.6 | 11.3 | 0.00 | 0.00 | 0.00 | 78 | 1012.1 |
| 20260509155502 | 15 | 207 | 1.6 | 6.4 | 0.00 | 0.00 | 0.00 | 78 | 1012.2 |
| 20260509155024 | 15 | 204 | 3.2 | 6.4 | 0.00 | 0.00 | 0.00 | 77 | 1012.2 |
| 20260509154502 | 15 | 200 | 3.2 | 6.4 | 0.00 | 0.00 | 0.00 | 77 | 1012.2 |
| 20260509154002 | 15 | 196 | 3.2 | 12.9 | 0.00 | 0.00 | 0.00 | 77 | 1012.3 |
| 20260509153502 | 15 | 206 | 3.2 | 12.9 | 0.00 | 0.00 | 0.00 | 78 | 1012.3 |
| 20260509153002 | 15 | 207 | 3.2 | 6.4 | 0.00 | 0.00 | 0.00 | 78 | 1012.2 |
| 20260509152502 | 15 | 200 | 3.2 | 8.0 | 0.00 | 0.00 | 0.00 | 78 | 1012.2 |
| 20260509152002 | 15 | 208 | 3.2 | 9.7 | 0.00 | 0.00 | 0.00 | 78 | 1012.3 |
| 20260509151503 | 15 | 215 | 4.8 | 9.7 | 0.00 | 0.00 | 0.00 | 78 | 1012.5 |
| 20260509151002 | 15 | 210 | 4.8 | 9.7 | 0.00 | 0.00 | 0.00 | 78 | 1012.2 |
| 20260509150502 | 14 | 209 | 4.8 | 9.7 | 0.00 | 0.00 | 0.00 | 79 | 1012.3 |
| 20260509150024 | 14 | 203 | 3.2 | 8.0 | 0.00 | 0.00 | 0.00 | 78 | 1012.3 |
| 20260509145502 | 14 | 181 | 1.6 | 6.4 | 0.00 | 0.00 | 0.00 | 79 | 1012.1 |
| 20260509145024 | 14 | 187 | 1.6 | 6.4 | 0.00 | 0.00 | 0.00 | 79 | 1012.0 |
| 20260509144503 | 15 | 189 | 3.2 | 6.4 | 0.00 | 0.00 | 0.00 | 79 | 1011.8 |
| 20260509144003 | 15 | 190 | 3.2 | 6.4 | 0.00 | 0.00 | 0.00 | 78 | 1012.0 |
| 20260509143503 | 15 | 183 | 3.2 | 6.4 | 0.00 | 0.00 | 0.00 | 78 | 1012.2 |
| 20260509143003 | 15 | 165 | 3.2 | 6.4 | 0.00 | 0.00 | 0.00 | 78 | 1012.1 |
| 20260509142503 | 14 | 183 | 1.6 | 6.4 | 0.00 | 0.00 | 0.00 | 78 | 1012.1 |
| 20260509142003 | 14 | 195 | 1.6 | 6.4 | 0.00 | 0.00 | 0.00 | 79 | 1012.1 |
| 20260509141524 | 14 | 196 | 1.6 | 6.4 | 0.00 | 0.00 | 0.00 | 78 | 1012.0 |
| 20260509141003 | 14 | 178 | 1.6 | 3.2 | 0.00 | 0.00 | 0.00 | 78 | 1012.0 |
| 20260509140503 | 14 | 161 | 1.6 | 3.2 | 0.00 | 0.00 | 0.00 | 78 | 1012.0 |
| 20260509140003 | 14 | 172 | 1.6 | 4.8 | 0.00 | 0.00 | 0.00 | 79 | 1012.0 |
| 20260509135503 | 14 | 168 | 1.6 | 4.8 | 0.00 | 0.00 | 0.00 | 78 | 1012.0 |
| 20260509135003 | 14 | 44 | 1.6 | 4.8 | 0.00 | 0.00 | 0.00 | 79 | 1012.0 |
| 20260509134525 | 14 | 82 | 1.6 | 3.2 | 0.00 | 0.00 | 0.00 | 79 | 1011.9 |
| 20260509134003 | 14 | 162 | 1.6 | 4.8 | 0.00 | 0.00 | 0.00 | 79 | 1011.9 |
| 20260509133503 | 14 | 158 | 1.6 | 4.8 | 0.00 | 0.00 | 0.00 | 79 | 1011.9 |
| 20260509133004 | 14 | 132 | 1.6 | 3.2 | 0.00 | 0.00 | 0.00 | 79 | 1011.8 |
| 20260509132503 | 14 | 137 | 1.6 | 4.8 | 0.00 | 0.00 | 0.00 | 79 | 1011.9 |
| 20260509131959 | 14 | 133 | 1.6 | 4.8 | 0.00 | 0.00 | 0.00 | 79 | 1012.0 |
| 20260509131459 | 14 | 114 | 1.6 | 6.4 | 0.00 | 0.00 | 0.00 | 80 | 1011.8 |
| 20260509130959 | 13 | 103 | 1.6 | 6.4 | 0.00 | 0.00 | 0.00 | 80 | 1011.8 |
| 20260509130459 | 13 | 98 | 1.6 | 4.8 | 0.00 | 0.00 | 0.00 | 80 | 1011.8 |
| 20260509125959 | 13 | 97 | 1.6 | 3.2 | 0.00 | 0.00 | 0.00 | 80 | 1011.9 |
| 20260509125500 | 13 | 102 | 1.6 | 3.2 | 0.00 | 0.00 | 0.00 | 80 | 1012.0 |
| 20260509125021 | 13 | 91 | 1.6 | 3.2 | 0.00 | 0.00 | 0.00 | 80 | 1011.9 |
| 20260509124500 | 13 | 90 | 1.6 | 3.2 | 0.00 | 0.00 | 0.00 | 80 | 1011.9 |
| 20260509124000 | 13 | 109 | 0.0 | 3.2 | 0.00 | 0.00 | 0.00 | 80 | 1011.9 |
| 20260509123521 | 13 | 101 | 0.0 | 3.2 | 0.00 | 0.00 | 0.00 | 80 | 1012.0 |
| 20260509123000 | 13 | 99 | 1.6 | 3.2 | 0.00 | 0.00 | 0.00 | 80 | 1012.0 |
| 20260509122500 | 13 | 86 | 1.6 | 3.2 | 0.00 | 0.00 | 0.00 | 80 | 1012.1 |
| 20260509122021 | 13 | 83 | 1.6 | 3.2 | 0.00 | 0.00 | 0.00 | 80 | 1012.1 |
| 20260509121500 | 12 | 86 | 1.6 | 3.2 | 0.00 | 0.00 | 0.00 | 80 | 1012.2 |
| 20260509121000 | 12 | 79 | 1.6 | 3.2 | 0.00 | 0.00 | 0.00 | 80 | 1012.3 |
| 20260509120500 | 12 | 85 | 0.0 | 3.2 | 0.00 | 0.00 | 0.00 | 80 | 1012.2 |
| 20260509120000 | 12 | 92 | 1.6 | 3.2 | 0.00 | 0.00 | 0.00 | 81 | 1012.2 |
| 20260509115500 | 12 | 96 | 1.6 | 3.2 | 0.00 | 0.00 | 0.00 | 81 | 1012.2 |
| 20260509115000 | 12 | 104 | 1.6 | 4.8 | 0.00 | 0.00 | 0.00 | 81 | 1012.1 |
| 20260509114500 | 12 | 101 | 1.6 | 4.8 | 0.00 | 0.00 | 0.00 | 81 | 1012.1 |
| 20260509114000 | 12 | 106 | 1.6 | 3.2 | 0.00 | 0.00 | 0.00 | 81 | 1011.9 |
| 20260509113500 | 12 | 123 | 1.6 | 4.8 | 0.00 | 0.00 | 0.00 | 81 | 1012.0 |
| 20260509113022 | 12 | 101 | 1.6 | 6.4 | 0.00 | 0.00 | 0.00 | 81 | 1011.9 |
| 20260509112500 | 12 | 93 | 1.6 | 6.4 | 0.00 | 0.00 | 0.00 | 81 | 1011.8 |
| 20260509112000 | 12 | 110 | 1.6 | 3.2 | 0.00 | 0.00 | 0.00 | 82 | 1011.8 |
| 20260509111500 | 11 | 116 | 1.6 | 3.2 | 0.00 | 0.00 | 0.00 | 82 | 1011.9 |
| 20260509111000 | 11 | 110 | 1.6 | 4.8 | 0.00 | 0.00 | 0.00 | 82 | 1011.9 |
| 20260509110500 | 11 | 97 | 1.6 | 4.8 | 0.00 | 0.00 | 0.00 | 81 | 1011.9 |
| 20260509110001 | 11 | 84 | 1.6 | 4.8 | 0.00 | 0.00 | 0.00 | 81 | 1011.9 |
| 20260509105500 | 11 | 111 | 1.6 | 6.4 | 0.00 | 0.00 | 0.00 | 81 | 1011.8 |
| 20260509105000 | 11 | 106 | 1.6 | 6.4 | 0.00 | 0.00 | 0.00 | 81 | 1011.9 |
| 20260509104500 | 11 | 93 | 1.6 | 4.8 | 0.00 | 0.00 | 0.00 | 82 | 1011.4 |
| 20260509104001 | 11 | 88 | 1.6 | 4.8 | 0.00 | 0.00 | 0.00 | 82 | 1011.6 |
| 20260509103501 | 11 | 94 | 1.6 | 4.8 | 0.00 | 0.00 | 0.00 | 82 | 1011.5 |
| 20260509103001 | 11 | 99 | 1.6 | 4.8 | 0.00 | 0.00 | 0.00 | 82 | 1011.6 |
| 20260509102500 | 11 | 94 | 1.6 | 4.8 | 0.00 | 0.00 | 0.00 | 82 | 1011.4 |
| 20260509102001 | 11 | 112 | 1.6 | 4.8 | 0.00 | 0.00 | 0.00 | 82 | 1011.6 |
| 20260509101500 | 11 | 125 | 1.6 | 3.2 | 0.00 | 0.00 | 0.00 | 82 | 1011.7 |
| 20260509101022 | 11 | 102 | 1.6 | 6.4 | 0.00 | 0.00 | 0.00 | 82 | 1011.4 |
| 20260509100501 | 11 | 89 | 1.6 | 6.4 | 0.00 | 0.00 | 0.00 | 83 | 1011.3 |
| 20260509100001 | 11 | 92 | 1.6 | 4.8 | 0.00 | 0.00 | 0.00 | 83 | 1011.4 |
| 20260509095501 | 11 | 96 | 1.6 | 4.8 | 0.00 | 0.00 | 0.00 | 83 | 1011.4 |